This is the latest recevied weather packets stored in our database for station/object WX5KDM. If no packets are shown the sender has not sent any weather packets the latest 10 day(s).
| Time | Temp. | Humidity | Pressure | Rain* | Wind** | Luminosity | Snow |
|---|---|---|---|---|---|---|---|
| 1788456475 | 35.56° C | 50% | 1016.6 hPa | 0 mm | - | - | - |
| 1788456169 | 36.11° C | 49% | 1016.6 hPa | 0 mm | - | - | - |
| 1788455864 | 35° C | 52% | 1016.7 hPa | 0 mm | - | - | - |
| 1788455560 | 35° C | 53% | 1016.9 hPa | 0 mm | - | - | - |
| 1788455258 | 35° C | 52% | 1016.9 hPa | 0 mm | - | - | - |
| 1788454954 | 35° C | 51% | 1017 hPa | 0 mm | - | - | - |
| 1788454652 | 35.56° C | 51% | 1017.1 hPa | 0 mm | - | - | - |
| 1788454347 | 36.11° C | 51% | 1017.1 hPa | 0 mm | - | - | - |
| 1788454041 | 36.67° C | 48% | 1017.2 hPa | 0 mm | - | - | - |
| 1788453738 | 36.11° C | 50% | 1016.9 hPa | 0 mm | - | - | - |
| 1788453437 | 35.56° C | 50% | 1017 hPa | 0 mm | - | - | - |
| 1788453134 | 35.56° C | 50% | 1017.2 hPa | 0 mm | - | - | - |
| 1788452829 | 35.56° C | 51% | 1017.2 hPa | 0 mm | - | - | - |
| 1788452525 | 36.11° C | 50% | 1017.6 hPa | 0 mm | - | - | - |
| 1788452221 | 36.11° C | 51% | 1017.4 hPa | 0 mm | - | - | - |
| 1788451916 | 35.56° C | 52% | 1017.4 hPa | 0 mm | - | - | - |
| 1788451612 | 35.56° C | 51% | 1017.4 hPa | 0 mm | - | - | - |
| 1788451311 | 35° C | 52% | 1017.5 hPa | 0 mm | - | - | - |
| 1788451009 | 36.11° C | 50% | 1017.5 hPa | 0 mm | - | - | - |
| 1788450704 | 35.56° C | 51% | 1017.4 hPa | 0 mm | - | - | - |
| 1788450400 | 36.11° C | 49% | 1017.6 hPa | 0 mm | - | - | - |
| 1788450091 | 35° C | 51% | 1017.6 hPa | 0 mm | - | - | - |
| 1788449787 | 34.44° C | 53% | 1017.4 hPa | 0 mm | - | - | - |
| 1788449482 | 35° C | 53% | 1017.7 hPa | 0 mm | - | - | - |
| 1788449178 | 35° C | 54% | 1017.5 hPa | 0 mm | - | - | - |
* Rain latest hour (hover to see other rain measurements)
** Current wind speed in m/s (hover to see current wind gust speed)